Regional Weather Roundup
Issued by NWS

Home | Current Version | Previous Version | Text Only | Print | Product List | Glossary On
Versions: 1 2 3 4 5 6 7 8 9 10 11 12 13 14 15 16 17 18 19 20 21 22 23 24 25 26 27 28 29 30 31 32 33 34 35 36 37 38 39 40 41 42 43 44 45 46 47 48 49 50
000
ASUS45 KSLC 231510
RWRUT

UTAH REGIONAL WEATHER ROUNDUP
NATIONAL WEATHER SERVICE SALT LAKE CITY UT
800 AM MST MON JAN 23 2017

UTZ001>011-023>025-231600-

NORTHERN UTAH

CITY           SKY/WX    TMP DP  RH WIND       PRES   REMARKS
BRIGHAM CITY     N/A     38  32  78 S17G25    29.50S WCI  29
DUGWAY         CLOUDY    38  30  72 S14G20    29.48F WCI  30
HILL AFB       CLOUDY    37  32  81 S22G31    29.48S WCI  27
LOGAN          SNOW      29  29 100 CALM      29.49F VSB 1/2
OGDEN          LGT RAIN  37  31  78 S18G26    29.48S WCI  27
SALT LAKE CITY CLOUDY    39  31  72 SE21G28   29.49F WCI  29
TOOELE VALLEY  CLOUDY    43  32  65 S21G28    29.47S
WENDOVER       CLOUDY    27  25  93 CALM      29.45F
HEBER CITY     FLURRIES  34  27  75 S8        29.52S WCI  27
WEST JORDAN    CLOUDY    35  35 100 S20G26    29.51S WCI  24

$$

UTZ011>015-024>027-231600-

CENTRAL/NORTHEAST UTAH

CITY           SKY/WX    TMP DP  RH WIND       PRES   REMARKS
PROVO AIRPORT  LGT RAIN  39  30  70 SE5       29.55F
MOAB/CANYONLAN MOCLDY    36  29  75 E12       29.65F WCI  28
DELTA          CLOUDY    36  32  87 S23G29    29.52F WCI  24
PRICE          LGT SNOW  29  28  96 NE6       29.61F FOG     WCI  23
RICHFIELD      MOCLDY    41  30  65 SW31      29.54
ROOSEVELT      LGT SNOW  27  25  93 CALM      29.67S
VERNAL         LGT SNOW  28  26  92 W3        29.65S FOG

$$

UTZ013>016-019>022-027-231600-

SOUTHERN UTAH

CITY           SKY/WX    TMP DP  RH WIND       PRES   REMARKS
BRYCE CANYON   SNOW      28  26  92 SE18      29.62F VSB 1/4 WCI  15
CEDAR CITY     LGT SNOW  34  31  88 S22G30    29.54S FOG     WCI  22
MILFORD        RAIN      36  33  89 SW28G37   29.52F WCI  23
ST GEORGE      CLOUDY    45  37  76 S13G20    29.67R
HANKSVILLE     MOCLDY    37  32  81 MISG      29.66S
KANAB          CLOUDY    36  34  93 CALM      29.71F
BLANDING       CLOUDY    30  28  93 E5        29.88F WCI  25

$$

REGIONAL REPORTS     COLORADO/ARIZONA

CITY           SKY/WX    TMP DP  RH WIND       PRES   REMARKS
CRAIG, CO      CLOUDY    31  25  78 E3        29.65F
GRAND JUNCTION CLOUDY    38  29  70 SE16      29.71F WCI  29
RIFLE, CO      CLOUDY    30  28  92 E5        29.71F WCI  25
MONTROSE, CO   CLOUDY    38  26  62 CALM      29.76F
CORTEZ, CO     CLOUDY    34  27  75 NW3       29.84F
COLORADO CITY  LGT RAIN  37  36  93 S8        29.70S WCI  31
PAGE, AZ       MOCLDY    42  29  59 S17G30    29.69F
GRAND CANYON   LGT SNOW  32  32 100 SW23G35   29.76S VSB 3/4 WCI  19
KINGMAN, AZ    CLOUDY    46  36  68 S26G40    29.77R
FLAGSTAFF, AZ  LGT SNOW  29  28  96 SW18G29   29.81F FOG     WCI  16

$$

REGIONAL REPORTS    NEVADA/IDAHO/WYOMING

CITY           SKY/WX    TMP DP  RH WIND       PRES   REMARKS
LAS VEGAS, NV  PTCLDY    48  31  51 S13G23    29.71R
ELY, NY        LGT SNOW  27  24  89 N6        29.53R FOG     WCI  20
ELKO, NV       LGT SNOW  31  29  92 SW8       29.52R VSB 1   WCI  23
POCATELLO, ID  LGT SNOW  30  29  96 NE9       29.50F VSB 1   WCI  22
BURLEY, ID     LGT SNOW  32  30  92 E14       29.45F FOG     WCI  22
FORT BRIDGER,  LGT SNOW  17  17 100 CALM      29.58S
EVANSTON, WY   LGT SNOW  21  18  88 E14       29.50F FOG     WCI   8
ROCK SPRINGS,  CLOUDY    26  18  71 SE8       29.57S WCI  18

$$



USA.gov is the U.S. government's official web portal to all federal, state and local government web resources and services.